Regional Weather Roundup
Issued by NWS

Home | Current Version | Previous Version | Graphics & Text | Print | Product List | Glossary On
Versions: 1 2 3 4 5 6 7 8 9 10 11 12 13 14 15 16 17 18 19 20 21 22 23 24 25 26 27 28 29 30 31 32 33 34 35 36 37 38 39 40 41 42 43 44 45 46 47 48 49 50
000
ASUS43 KLMK 012010
RWRKY
KENTUCKY REGIONAL WEATHER ROUNDUP
NATIONAL WEATHER SERVICE LOUISVILLE KY
400 PM EDT WED OCT 01 2014

NOTE "FAIR" INDICATES FEW OR NO CLOUDS BELOW 12,000 FEET
WITH NO SIGNIFICANT WEATHER AND/OR OBSTRUCTIONS TO VISIBILITY.

KYZ001>023-026-027-061>063-070>075-012100-
WESTERN AND SOUTH CENTRAL KENTUCKY

CITY           SKY/WX    TMP DP  RH WIND       PRES   REMARKS
PADUCAH        MOSUNNY   86  60  41 VRB5      29.88F
HENDERSON      NOT AVBL
OWENSBORO      MOSUNNY   88  55  32 SW8       29.92F
HOPKINSVILLE   MOSUNNY   86  56  36 VRB2      29.92F
BOWLING GREEN  SUNNY     86  52  30 SE8       29.95F
GLASGOW        SUNNY     85  49  28 CALM      29.96S
$$

KYZ024-025-028>034-038-045-046-053-012100-
NORTH CENTRAL KENTUCKY

CITY           SKY/WX    TMP DP  RH WIND       PRES   REMARKS
LOUISVILLE/SDF MOSUNNY   83  57  41 S6        29.95F
LOUISVILLE/LOU SUNNY     82  56  40 W3        29.96F
FORT KNOX      MOSUNNY   82  60  47 VRB6      29.94F
$$

KYZ035>037-039>044-047>052-055>060-089>105-012100-
NORTHEAST KENTUCKY

CITY           SKY/WX    TMP DP  RH WIND       PRES   REMARKS
LEXINGTON      SUNNY     82  58  43 VRB5      29.99F
COVINGTON      MOSUNNY   75  54  47 CALM      29.99F
FRANKFORT      SUNNY     79  59  50 VRB3      29.97F
$$

KYZ054-064>069-076>088-106>120-012100-
SOUTHEAST KENTUCKY

CITY           SKY/WX    TMP DP  RH WIND       PRES   REMARKS
JACKSON        MOSUNNY   78  57  48 VRB3      30.02S
LONDON         MOSUNNY   82  53  36 W5        30.01S
SOMERSET       PTSUNNY   82  48  30 NW3       30.00S
MIDDLESBORO    MOSUNNY   80  56  43 S3        30.01S
MONTICELLO     PTCLDY    85  55  35 SW6       30.00F
$$




USA.gov is the U.S. government's official web portal to all federal, state and local government web resources and services.